Weather History for Hot Springs, AR

Change the Weather History Date:

Tuesday, July 23, 2013

  Actual Average Record
Temperature  
Mean Temperature 85 °F -  
Max Temperature 100 °F 94 °F 105 °F (1974)
Min Temperature 71 °F 70 °F 61 °F (1988)
Cooling Degree Days 20    
Growing Degree Days 35 (Base 50)    
Moisture  
Dew Point 71 °F    
Average Humidity 78    
Maximum Humidity 96    
Minimum Humidity 42    
Precipitation  
Precipitation 0.90 in - - ()
Sea Level Pressure  
Sea Level Pressure 29.91 in    
Wind  
Wind Speed 6 mph (SW)    
Max Wind Speed 24 mph    
Max Gust Speed 37 mph    
Visibility 8 miles    
Events Rain , Thunderstorm    
Averages and records for this station are not official NWS values.
T = Trace of Precipitation, MM = Missing Value Source: NWS Daily Summary

Daily Weather History Graph

Daily Weather History Graph

Search for Another Location

Airport:

Trip Planner

Search our weather history database for the weather conditions in past years. The results will help you decide how hot, cold, wet, or windy it might be!

Date:

Astronomy

Jul. 23, 2013 Rise Set
Actual Time 6:16 AM CDT 8:20 PM CDT
Civil Twilight 5:48 AM CDT 8:48 PM CDT
Nautical Twilight 5:14 AM CDT 9:23 PM CDT
Astronomical Twilight 4:37 AM CDT 9:59 PM CDT
Moon 8:56 PM CDT (7/23) 7:20 AM CDT (7/23)
Length of Visible Light 15h 00m
Length of Day
14h 04m
Full, 99% of the Moon is Illuminated
Jul 23
Full
Jul 29
Last Quarter
Aug 6
New
Aug 14
First Quarter
Aug 20
Full

Hourly Weather History & Observations

Time (CDT) Temp. Heat Index Dew Point Humidity Pressure Visibility Wind Dir Wind Speed Gust Speed Precip Events Conditions
12:53 AM 80.1 °F 84.2 °F 73.0 °F 79% 29.91 in 10.0 mi Calm Calm - N/A   Clear
1:53 AM 81.0 °F 86.2 °F 73.9 °F 79% 29.91 in 10.0 mi NW 3.5 mph - N/A   Clear
2:53 AM 79.0 °F - 73.0 °F 82% 29.91 in 9.0 mi Calm Calm - N/A   Clear
3:53 AM 78.1 °F - 73.0 °F 84% 29.91 in 10.0 mi SSW 3.5 mph - N/A   Clear
4:53 AM 80.1 °F 83.8 °F 72.0 °F 76% 29.90 in 10.0 mi WSW 5.8 mph - N/A   Clear
5:53 AM 80.1 °F 83.8 °F 72.0 °F 76% 29.91 in 10.0 mi West 4.6 mph - N/A   Clear
6:53 AM 79.0 °F - 72.0 °F 79% 29.93 in 10.0 mi Calm Calm - N/A   Clear
7:53 AM 82.0 °F 87.4 °F 73.0 °F 74% 29.94 in 10.0 mi WSW 8.1 mph - N/A   Clear
8:53 AM 84.9 °F 91.4 °F 73.0 °F 67% 29.94 in 10.0 mi WSW 6.9 mph - N/A   Clear
9:53 AM 87.1 °F 94.5 °F 73.0 °F 63% 29.95 in 10.0 mi SW 9.2 mph - N/A   Clear
10:53 AM 90.0 °F 96.9 °F 72.0 °F 55% 29.94 in 10.0 mi West 10.4 mph 20.7 mph N/A   Clear
11:53 AM 93.0 °F 101.9 °F 73.0 °F 52% 29.92 in 10.0 mi SW 12.7 mph 20.7 mph N/A   Clear
12:53 PM 95.0 °F 104.5 °F 73.0 °F 49% 29.89 in 10.0 mi SW 12.7 mph - N/A   Clear
1:53 PM 97.0 °F 107.0 °F 73.0 °F 46% 29.87 in 10.0 mi WSW 15.0 mph 18.4 mph N/A   Partly Cloudy
2:49 PM 98.6 °F 107.7 °F 71.6 °F 42% 29.88 in 10.0 mi SSW 10.4 mph 17.3 mph N/A Thunderstorm Partly Cloudy
2:53 PM 99.0 °F 108.5 °F 72.0 °F 42% 29.85 in 10.0 mi SW 12.7 mph 19.6 mph N/A Thunderstorm Partly Cloudy
3:15 PM 82.4 °F 85.4 °F 68.0 °F 62% 29.90 in 10.0 mi East 19.6 mph 26.5 mph N/A Thunderstorm Thunderstorm
3:43 PM 75.2 °F - 69.8 °F 83% 29.91 in 2.0 mi ENE 23.0 mph 36.8 mph 0.01 in Rain , Thunderstorm Light Thunderstorms and Rain
3:59 PM 73.4 °F - 69.8 °F 88% 29.92 in - ENE 24.2 mph 31.1 mph 0.22 in Rain , Thunderstorm Heavy Thunderstorms and Rain
4:05 PM 71.6 °F - 69.8 °F 94% 29.93 in 0.8 mi Variable 6.9 mph 31.1 mph 0.34 in Rain , Thunderstorm Heavy Thunderstorms and Rain
4:16 PM 73.4 °F - 69.8 °F 88% 29.88 in 2.0 mi South 4.6 mph - 0.47 in Rain , Thunderstorm Light Thunderstorms and Rain
4:24 PM 73.4 °F - 71.6 °F 94% 29.90 in 10.0 mi SSW 4.6 mph - 0.50 in Rain , Thunderstorm Light Thunderstorms and Rain
4:53 PM 73.9 °F - 72.0 °F 93% 29.87 in 9.0 mi Variable 3.5 mph - 0.52 in Rain , Thunderstorm Light Thunderstorms and Rain
5:53 PM 75.9 °F - 72.0 °F 87% 29.86 in 5.0 mi Calm Calm - 0.02 in Rain , Thunderstorm Light Thunderstorms and Rain
6:23 PM 75.2 °F - 71.6 °F 89% 29.92 in 1.5 mi West 11.5 mph 19.6 mph 0.03 in Rain , Thunderstorm Heavy Thunderstorms and Rain
6:41 PM 73.4 °F - 68.0 °F 83% 29.93 in 3.0 mi SSW 10.4 mph - 0.09 in Rain , Thunderstorm Heavy Thunderstorms and Rain
6:53 PM 73.0 °F - 68.0 °F 84% 29.89 in 10.0 mi SW 10.4 mph 20.7 mph 0.14 in Rain , Thunderstorm Light Thunderstorms and Rain
7:15 PM 73.4 °F - 69.8 °F 88% 29.88 in 10.0 mi East 3.5 mph - 0.07 in   Scattered Clouds
7:53 PM 73.0 °F - 71.1 °F 93% 29.84 in 10.0 mi WNW 4.6 mph - 0.07 in   Partly Cloudy
8:53 PM 73.0 °F - 69.1 °F 87% 29.90 in 10.0 mi Calm Calm - N/A   Clear
9:53 PM 73.0 °F - 70.0 °F 90% 29.94 in 10.0 mi NNE 4.6 mph - 0.00 in   Scattered Clouds
10:04 PM 73.4 °F - 69.8 °F 88% 29.98 in 10.0 mi NNE 16.1 mph 23.0 mph 0.00 in Rain , Thunderstorm Light Rain
10:53 PM 73.0 °F - 71.1 °F 93% 29.94 in 6.0 mi South 8.1 mph - 0.07 in Rain , Thunderstorm Thunderstorms and Rain
11:16 PM 73.4 °F - 71.6 °F 94% 29.96 in 5.0 mi WNW 6.9 mph - 0.02 in Rain , Thunderstorm Rain
11:43 PM 73.4 °F - 71.6 °F 94% 29.96 in 7.0 mi ENE 3.5 mph - 0.07 in Rain Light Rain
11:53 PM 73.0 °F - 72.0 °F 96% 29.93 in 5.0 mi Calm Calm - 0.08 in Rain Rain